SCP
6 6 6 6 8 10 12 13 13 12 10 8 7 7 6 6 6 5 5 4 4 4 4 3 3 3 3 3 2 2 1 1 1 1 1 0 0 0 0 0 0 0 0
5 5 5 5 6 7 9 10 11 11 10 9 8 7 7 6 6 5 5 5 4 4 4 4 3 3 3 3 3 2 2 1 1 1 1 1 0 0 0 0 0 0 0
4 3 3 4 4 4 6 7 9 9 9 9 8 8 7 7 6 6 5 5 4 4 4 4 3 3 3 3 3 3 2 2 1 1 1 1 1 0 0 0 0 0 0
3 2 2 3 3 4 4 5 6 7 7 7 7 7 7 7 7 6 5 5 4 4 4 4 3 3 3 3 3 3 3 2 2 1 1 1 1 1 1 1 0 0 0
2 2 2 2 2 3 3 4 4 5 5 6 6 6 6 6 6 6 6 5 5 5 5 4 4 3 3 3 3 3 3 3 2 2 1 1 1 1 1 1 1 1 1
2 1 1 1 2 2 3 3 3 3 4 4 5 5 5 5 5 5 5 6 6 6 6 5 5 4 3 2 2 2 2 3 3 2 2 1 1 1 2 2 2 2 2
2 1 1 1 1 2 2 3 3 3 3 3 3 4 4 4 4 3 4 5 7 7 7 6 6 5 4 3 2 2 2 2 2 3 2 2 2 2 2 2 2 2 2
1 1 1 1 1 1 2 2 3 3 3 3 3 3 3 3 3 2 2 4 6 7 7 7 7 6 5 4 3 2 2 2 2 2 3 2 2 3 3 3 2 2 2
1 1 1 1 1 1 1 2 3 3 3 3 3 3 3 3 2 2 2 3 4 6 7 7 7 7 6 5 4 3 3 2 2 2 2 2 2 2 2 2 2 2 2
1 1 1 1 1 1 1 2 3 3 3 3 3 2 3 3 2 1 1 2 3 4 5 6 6 6 5 4 4 4 4 3 3 2 2 1 1 1 1 1 1 2 2
1 1 1 1 1 2 3 3 3 3 3 2 2 3 3 3 2 1 1 1 2 3 4 5 5 4 3 2 2 3 3 3 3 3 3 2 1 1 1 1 1 1 1
1 1 1 1 1 2 3 3 3 2 2 2 3 3 3 3 2 1 1 0 1 2 3 3 3 2 1 1 1 2 2 2 2 3 2 2 1 1 1 1 1 1 1
1 1 1 1 1 2 2 2 2 2 2 2 2 3 3 3 2 1 0 0 1 1 2 2 2 1 0 0 0 0 1 1 1 1 1 1 1 1 1 0 0 0 0
1 1 1 1 1 2 2 2 2 2 2 2 2 3 3 3 2 1 0 0 0 1 1 1 1 0 0 0 0 0 0 0 0 1 1 1 1 0 0 0 0 0 0
1 1 1 1 1 2 2 2 2 2 2 2 2 3 3 3 2 1 1 0 0 0 0 0 0 0 0 0 0 0 0 0 0 0 0 0 0 0 0 0 0 0 0
1 1 1 1 2 2 3 3 2 1 1 1 2 2 2 2 2 1 0 0 0 0 0 0 0 0 0 0 0 0 0 0 0 0 0 0 0 0 0 0 0 0 0
1 1 1 1 2 3 3 3 2 1 1 1 1 1 2 1 1 0 0 0 0 0 0 0 0 0 0 0 0 0 0 0 0 0 0 0 0 0 0 0 0 0 0
1 1 1 1 1 2 2 3 2 2 1 1 1 1 1 1 0 0 0 0 0 0 0 0 0 0 0 0 0 0 0 0 0 0 0 0 0 0 0 0 0 0 0
1 1 1 1 0 1 1 2 2 2 2 2 1 1 0 0 0 0 0 0 0 0 0 0 0 0 0 0 0 0 0 0 0 0 0 0 0 0 0 0 0 0 0
1 1 1 1 1 1 1 2 2 2 3 2 2 1 1 0 0 0 0 0 0 0 0 0 0 0 0 0 0 0 0 0 0 0 0 0 0 0 0 0 0 0 0
1 1 1 1 1 1 1 1 1 2 2 2 1 1 1 0 0 0 0 0 0 0 0 0 0 0 0 0 0 0 0 0 0 0 0 0 0 0 0 0 0 0 0
2 2 1 1 1 1 1 1 1 1 1 1 1 1 1 0 1 1 0 0 0 0 0 0 0 0 0 0 0 0 0 0 0 0 0 0 0 0 0 0 0 0 0
2 2 1 1 0 0 0 0 0 0 0 0 1 1 1 1 1 1 1 0 0 0 0 0 0 0 0 0 0 0 0 0 0 0 0 0 0 0 0 0 0 0 0
2 1 1 1 0 0 0 0 0 0 0 0 1 1 1 1 1 1 1 1 0 0 0 0 0 0 0 0 0 0 0 0 0 0 0 0 0 0 0 0 0 0 0
1 1 1 0 0 0 0 0 0 0 0 0 0 1 1 1 1 1 1 1 1 1 0 0 0 0 0 0 0 0 0 0 0 0 0 0 0 0 0 0 0 0 0
0 0 0 0 0 0 0 0 0 0 0 0 0 1 1 1 0 1 1 1 1 1 0 0 0 0 0 0 0 0 0 0 0 0 0 0 0 0 0 0 0 0 0
Wind_Speed
1 1 1 0 1 1 1 2 2 2 2 2 2 2 3 3 3 3 3 3 3 2 1 2 2 2 1 1 1 1 2 2 2 2 2 1 1 1 1 2 2 3 4
2 1 1 1 0 1 1 2 2 2 2 2 2 2 3 3 3 4 4 4 3 3 3 2 2 2 1 1 1 1 1 2 2 2 2 1 2 2 2 2 2 2 2
1 2 1 1 1 2 2 2 2 2 2 2 3 3 3 3 3 4 4 4 4 4 4 3 3 2 2 1 1 1 1 1 1 2 2 1 1 1 0 2 2 1 2
2 2 2 2 3 3 2 2 3 3 3 3 3 4 4 4 3 3 3 3 3 4 3 4 3 4 4 3 2 2 2 1 1 1 1 1 1 1 0 1 1 1 2
2 2 3 3 3 2 2 2 2 3 3 3 3 3 3 3 3 4 3 3 3 3 3 3 3 4 5 4 2 2 2 2 1 1 1 1 1 1 1 1 2 2 2
2 2 3 2 2 2 2 3 2 3 3 3 3 3 3 3 4 5 4 3 3 3 3 3 3 3 4 4 4 4 5 4 3 3 2 2 3 3 2 2 1 0 2
3 3 2 2 3 3 3 3 3 3 3 3 3 4 4 4 5 5 5 3 3 3 4 3 3 3 3 3 3 3 4 5 6 5 4 4 4 4 3 2 2 2 3
3 3 3 3 3 3 2 3 4 3 3 3 4 4 4 4 5 5 5 3 3 3 4 4 4 4 4 3 3 3 3 4 5 5 5 5 5 4 5 4 4 2 2
3 4 4 3 3 3 3 4 4 3 3 3 3 4 4 4 5 6 5 2 3 4 4 4 4 4 5 5 3 3 3 4 4 5 6 6 6 6 4 2 1 1 2
2 3 3 3 3 4 4 4 3 3 3 3 3 4 4 4 5 6 6 3 3 3 3 3 5 5 5 5 4 4 4 4 2 2 2 3 3 3 5 4 4 3 2
2 2 2 2 3 4 4 3 3 2 2 3 3 3 3 4 4 5 7 4 4 3 3 3 3 5 5 6 5 5 6 4 2 2 2 2 2 2 2 3 4 4 4
1 1 2 2 3 2 2 2 2 2 2 3 2 2 2 3 3 4 6 6 5 4 4 3 3 5 6 6 6 6 6 4 2 1 1 2 2 3 3 3 4 4 4
1 1 2 2 2 1 2 2 1 1 2 2 2 3 2 2 3 5 6 7 6 4 3 5 5 6 5 4 6 6 4 3 2 2 2 3 3 3 2 2 2 2 2
2 2 2 1 1 1 1 1 2 2 2 2 3 3 2 2 2 2 3 3 4 3 2 3 4 4 3 3 3 3 3 3 3 3 3 2 2 1 2 1 1 1 1
1 1 1 1 1 1 1 1 1 2 3 4 3 3 3 3 5 6 4 3 3 3 2 1 1 1 1 2 2 2 3 2 3 2 2 2 2 2 2 1 1 1 2
1 1 1 1 1 0 0 2 2 2 3 3 3 3 3 4 4 4 5 5 5 4 3 2 2 3 3 3 3 3 3 3 3 3 3 3 3 3 3 2 1 2 2
2 1 1 1 1 1 1 0 1 3 3 2 3 3 3 3 2 2 3 3 3 5 3 2 3 3 3 3 3 3 3 3 3 3 3 3 3 3 2 2 2 2 2
2 2 2 1 1 1 1 1 1 1 1 2 3 3 3 3 3 2 2 2 1 2 2 3 3 3 3 3 3 3 3 2 2 3 3 3 3 3 2 3 3 3 3
1 1 2 1 1 1 1 1 1 1 1 1 2 2 2 2 1 0 2 2 1 2 2 3 3 3 3 3 3 3 3 3 3 3 3 3 3 3 3 3 3 4 3
1 2 1 1 1 1 0 1 1 1 1 1 1 2 0 2 1 0 1 1 1 1 2 2 2 2 2 2 2 2 2 2 2 2 2 2 2 2 3 3 3 2 2
1 1 1 0 0 1 0 1 1 1 1 1 2 1 2 2 1 1 1 2 2 2 2 2 1 1 1 1 1 1 2 2 1 1 1 2 2 2 2 2 2 2 2
1 1 0 0 0 0 1 1 1 1 1 1 1 1 1 1 1 0 0 1 1 1 1 1 1 1 1 0 1 1 1 1 1 1 1 1 1 2 2 2 2 2 2
1 1 0 0 0 1 1 1 0 0 1 1 0 0 1 0 0 0 0 1 0 0 0 0 0 1 1 1 1 1 1 1 2 2 2 2 1 1 2 2 3 3 3
1 1 1 1 1 0 0 1 1 1 1 1 0 0 1 1 0 0 0 0 0 0 1 1 1 1 1 1 1 0 0 1 1 1 2 2 2 1 1 2 2 2 3
1 1 1 1 1 1 1 1 1 1 1 0 0 0 0 1 1 1 0 1 1 1 1 1 1 1 2 2 1 1 1 1 1 0 1 1 1 1 1 1 1 2 2
1 0 0 0 1 1 1 1 1 1 1 0 0 0 1 1 1 1 1 1 1 1 1 1 1 2 2 1 1 1 1 1 1 1 0 0 0 1 1 1 2 2 2
Wind_Direction
139 136 116 163 205 147 167 192 195 203 201 197 201 196 193 196 190 177 192 196 192 199 186 173 198 189 166 202 181 176 178 159 189 256 256 270 235 237 261 256 256 245 245
145 122 135 167 184 175 200 215 207 209 209 198 190 192 199 199 197 194 202 198 196 204 200 183 210 195 175 195 182 198 202 184 175 223 264 268 251 238 239 245 254 244 248
138 125 138 249 233 227 229 220 210 213 220 212 191 193 196 199 203 210 208 205 206 206 201 194 206 188 196 206 195 201 212 183 162 181 244 258 264 262 264 280 274 271 258
166 155 176 218 222 226 231 230 226 218 216 216 207 207 202 198 199 207 210 211 211 212 207 201 200 192 200 200 198 206 189 161 152 168 238 270 266 272 150 273 299 294 272
180 185 206 209 216 222 227 236 239 226 217 213 206 209 206 199 205 205 206 202 203 211 219 215 210 199 199 196 194 200 184 182 174 181 228 248 259 256 239 227 242 275 273
208 221 221 210 213 224 231 230 230 231 226 209 201 199 204 212 206 198 189 197 202 204 219 232 231 214 210 210 210 194 181 182 192 192 211 227 241 232 228 214 209 271 283
221 232 234 229 223 228 231 227 224 225 218 208 208 201 208 216 203 196 193 187 199 213 218 223 233 230 221 224 231 231 219 211 197 189 202 220 222 220 205 213 211 208 236
219 232 236 232 231 230 227 230 230 227 219 216 213 205 205 221 209 199 196 190 201 219 222 219 218 229 231 216 221 232 239 235 223 209 208 221 225 221 207 206 212 227 264
225 233 237 232 230 224 227 235 232 220 225 225 213 202 205 225 213 202 194 191 214 233 233 228 220 226 237 219 202 221 245 261 253 233 227 231 234 232 206 160 161 163 259
241 236 238 231 230 232 231 232 229 216 222 222 219 211 207 217 214 208 195 189 213 234 244 241 234 233 236 209 196 202 231 248 251 265 265 266 247 230 209 192 187 186 200
268 249 233 230 232 236 238 230 223 217 216 220 222 219 214 214 214 211 200 194 205 215 225 239 244 238 229 215 205 208 225 228 223 221 234 258 267 251 232 217 201 189 189
286 282 259 246 243 238 233 231 219 206 210 220 218 223 227 217 210 213 207 209 208 205 222 231 241 240 233 227 219 231 235 217 201 215 232 243 246 248 244 233 225 215 211
296 278 274 270 255 233 219 217 213 201 201 215 211 220 233 227 224 221 214 215 216 210 227 234 237 239 239 236 235 237 224 198 186 202 235 242 239 241 244 252 261 243 244
263 257 261 270 290 300 247 207 191 197 205 213 215 221 225 223 225 221 214 218 226 227 239 250 244 243 236 236 240 235 217 207 198 207 225 242 249 251 247 234 235 244 249
276 270 269 260 260 316 334 294 227 229 216 208 217 212 203 221 231 210 193 204 207 207 188 197 221 220 227 238 239 231 221 217 219 219 211 231 241 235 249 240 220 216 221
229 275 275 277 287 280 338 339 338 297 273 231 211 202 218 217 209 195 203 212 211 192 164 201 221 219 220 222 224 230 221 216 217 212 212 220 226 229 242 242 216 212 238
215 229 243 231 227 239 220 212 310 329 330 301 264 235 228 215 200 200 207 213 210 171 177 214 224 224 223 220 221 220 222 224 217 209 210 218 224 229 230 234 231 230 244
218 223 211 203 204 217 225 220 198 213 308 315 306 280 263 244 222 212 193 137 110 176 210 219 225 230 227 223 224 223 222 221 218 218 216 220 222 223 229 232 232 233 240
220 226 219 215 210 208 214 211 220 224 238 291 320 322 284 249 241 218 145 149 197 224 236 240 235 229 229 227 225 223 219 219 223 221 221 223 224 221 229 233 234 240 236
231 256 241 201 211 208 211 221 230 231 234 237 257 270 322 97 78 15 190 204 211 235 243 243 249 244 229 229 228 222 219 219 222 222 226 226 225 219 226 237 233 232 239
219 282 317 68 200 215 218 233 235 231 233 237 249 260 172 159 193 203 203 213 218 225 236 240 251 254 251 243 221 205 199 210 217 224 228 226 214 213 222 226 231 234 248
185 186 178 212 238 231 256 250 243 237 243 252 281 306 196 156 157 148 214 238 232 231 236 228 226 242 236 191 170 180 192 197 206 212 222 229 232 223 217 219 232 234 231
171 164 188 252 278 309 314 294 275 248 256 260 228 75 119 195 219 209 238 276 296 306 338 85 103 41 40 63 78 150 195 213 218 210 208 220 225 232 228 227 231 235 234
168 177 197 230 266 280 258 271 277 262 244 242 207 152 158 173 167 170 171 154 121 61 58 84 108 111 102 88 75 60 291 251 230 221 211 208 225 244 248 252 244 240 238
162 204 229 226 229 248 256 265 265 250 246 242 208 211 203 155 163 176 165 152 132 109 94 94 88 91 94 85 73 36 351 350 359 295 210 188 220 248 249 255 273 288 271
129 141 282 303 276 262 251 262 259 242 236 240 219 180 148 149 174 198 183 159 138 118 103 79 79 89 87 85 42 8 0 4 356 330 306 177 196 272 286 283 288 293 292